Flag for China Weather past 2 weeks in Guangzhou, Guangdong, China

Now
99 °F

Scattered clouds.


Feels Like: 110 °F
Forecast: 80 / 95 °F
Wind: 3 mph from North

Location: Canton Airport

Current Time: Aug 2, 2014 at 5:18:51 PM

Latest Report: Aug 2, 2014 at 4:30 PM


Visibility: 4 mi

Pressure: 29.45 "Hg

Humidity: 44%

Dew point: 73 °F

Location of GuangzhouLocation

Historic Weather in Guangzhou — Graph

°F

Guangzhou temperature yesterday

Maximum temperature yesterday: 100 °F (at 2:00 PM)
Minimum temperature yesterday: 84 °F (at 6:00 AM)
Average temperature yesterday: 91 °F

Past Weeks' High & Low Weather Summary

 TemperatureHumidityPressure
High100 °F (Jul 31, 2:30 PM)100% (Jul 20, 7:30 AM)29.83 "Hg (Jul 20, 7:30 AM)
Low79 °F (Jul 19, 4:30 AM)42% (Jul 22, 5:30 PM)29.42 "Hg (Jul 23, 4:00 PM)
Average87 °F72%29.65 "Hg
* Reported Jul 18 4:00 PM — Aug 2 4:00 PM, Guangzhou, Weather by CustomWeather, © 2014

Note: Actual official high and low records may vary slightly from our data, if they occured in-between our weather recording intervals... More about our weather records

Advertising

Guangzhou weather history for previous 24 hours

 ConditionsComfort  
Time TempWeatherWind HumidityBarometerVisibility
4:00 PM
Aug 2
99 °FScattered clouds.3 mph44%29.47 "Hg4 mi
3:30 PM99 °FScattered clouds.3 mph47%29.47 "Hg4 mi
3:00 PM99 °FScattered clouds.1 mph47%29.47 "Hg4 mi
2:30 PM99 °FScattered clouds.3 mph44%29.50 "Hg4 mi
2:00 PM97 °FScattered clouds.3 mph50%29.50 "Hg4 mi
1:30 PM95 °FScattered clouds.6 mph53%29.53 "Hg4 mi
1:00 PM95 °FScattered clouds.3 mph53%29.56 "Hg4 mi
12:30 PM97 °FScattered clouds.1 mph50%29.56 "Hg4 mi
12:00 PM95 °FClear.1 mph53%29.56 "Hg4 mi
11:30 AM97 °FClear.1 mph50%29.56 "Hg4 mi
11:00 AM93 °FClear.1 mph56%29.59 "Hg4 mi
10:30 AM91 °FClear.6 mph59%29.59 "Hg4 mi
10:00 AM91 °FHaze.1 mph59%29.59 "Hg3 mi
9:30 AM90 °FHaze.1 mph63%29.59 "Hg3 mi
9:00 AM88 °FHaze.1 mph66%29.59 "Hg3 mi
8:30 AM86 °FFog.3 mph75%29.59 "Hg3 mi
8:00 AM84 °FFog.1 mph74%29.59 "Hg2 mi
7:30 AM82 °FFog.3 mph79%29.59 "Hg2 mi
7:00 AM82 °FFog.3 mph79%29.56 "Hg2 mi
6:30 AM81 °FFog.1 mph89%29.56 "Hg3 mi
6:00 AM81 °FFog.3 mph84%29.56 "Hg3 mi
5:30 AM81 °FClear.1 mph84%29.56 "Hg4 mi
5:00 AM82 °FClear.1 mph79%29.56 "Hg4 mi
4:30 AM81 °FClear.3 mph84%29.56 "Hg5 mi
4:00 AM82 °FClear.3 mph79%29.53 "Hg5 mi
3:30 AM82 °FClear.No wind79%29.56 "Hg6 mi
3:00 AM82 °FClear.1 mph79%29.53 "Hg6 mi
2:30 AM82 °FClear.1 mph79%29.53 "Hg6 mi
2:00 AM82 °FClear.1 mph79%29.56 "Hg10 mi
1:30 AM82 °FClear.3 mph74%29.56 "Hg10 mi
1:00 AM84 °FClear.6 mph74%29.56 "Hg10 mi
12:30 AM84 °FClear.6 mph74%29.59 "Hg10 mi
12:00 AM84 °FPassing clouds.6 mph74%29.59 "HgN/A
11:30 PM
Aug 1
84 °FClear.6 mph74%29.59 "Hg10 mi
11:00 PM86 °FClear.6 mph66%29.59 "Hg10 mi
10:30 PM86 °FPassing clouds.6 mph70%29.59 "HgN/A
10:00 PM86 °FPassing clouds.6 mph70%29.59 "HgN/A
9:30 PM88 °FClear.6 mph62%29.56 "Hg10 mi
9:00 PM88 °FClear.6 mph59%29.53 "Hg10 mi
8:30 PM90 °FClear.1 mph52%29.53 "Hg10 mi
8:00 PM90 °FPassing clouds.6 mph55%29.50 "HgN/A
7:30 PM88 °FClear.6 mph59%29.50 "Hg10 mi
7:00 PM88 °FPassing clouds.8 mph59%29.47 "HgN/A
6:30 PM91 °FPartly sunny.10 mph49%29.47 "HgN/A
6:00 PM91 °FPartly sunny.8 mph52%29.45 "HgN/A
5:30 PM91 °FSprinkles. Scattered clouds.3 mph46%29.47 "HgN/A
5:00 PM91 °FScattered clouds.3 mph46%29.47 "HgN/A
Weather by CustomWeather, © 2014

See weather overviewHow to use our weather pages